Wetbulb
47.86 46.12 45.18 47.85 53.62 53.38 53.54 53.07 53.88 57.03 60.44 58.66 57.65 57.80 60.11 61.19 61.41 60.32 60.45 60.71 61.47 62.28 64.66 66.20 67.06 67.93 68.38 67.52 67.13 67.72 68.30 68.81 69.79 69.37 69.81 69.54 69.45 70.48 69.78 71.54 71.56 71.18 71.90 72.71
44.24 42.81 48.12 50.10 51.45 51.28 52.05 51.78 53.24 56.77 60.53 58.38 56.85 56.19 58.75 61.65 61.65 61.44 60.98 61.09 61.63 62.71 63.43 64.64 65.36 66.25 67.49 67.03 67.23 67.62 68.99 69.19 70.29 70.48 69.94 70.23 69.76 69.80 69.18 70.22 72.53 72.81 72.26 72.20
41.91 45.88 49.74 49.49 48.93 53.18 50.51 50.68 52.68 53.41 57.13 56.93 55.44 52.61 58.33 61.84 62.06 62.35 62.37 62.78 63.02 62.96 62.87 63.19 63.49 64.49 66.80 66.27 67.24 67.88 69.39 69.13 70.60 70.53 70.47 69.29 69.32 71.43 71.50 71.54 70.93 72.57 73.03 73.09
43.26 46.59 47.23 45.15 45.05 49.61 43.45 54.29 56.07 55.34 51.39 47.62 53.80 45.19 54.09 56.18 58.53 60.21 61.17 61.93 62.52 63.26 64.26 64.07 63.70 64.25 65.89 66.60 67.93 68.34 69.42 69.04 70.44 70.76 70.24 68.67 67.52 67.40 69.42 70.24 69.94 70.30 73.07 73.20
44.43 44.65 44.29 43.81 46.59 52.51 48.82 54.45 55.35 55.47 50.85 45.68 46.30 46.08 50.82 53.64 55.76 58.61 60.24 61.66 62.95 64.01 64.33 64.11 64.48 65.39 66.70 67.61 67.81 68.64 69.24 69.35 70.48 70.77 70.70 69.53 66.80 68.16 69.26 69.88 69.55 70.27 71.65 72.52
44.98 46.75 45.48 45.77 47.37 51.21 49.80 45.85 44.05 43.93 42.51 38.18 42.13 42.18 42.32 51.03 56.31 59.22 61.04 62.13 63.03 63.69 64.37 64.62 65.65 65.92 67.27 67.75 68.17 68.88 69.30 69.64 70.38 70.65 70.49 69.49 67.79 68.38 68.86 69.00 68.66 68.82 69.95 70.74
42.75 43.75 45.88 46.90 44.91 45.71 42.78 38.75 35.21 35.90 36.02 37.06 37.99 39.55 43.18 47.08 55.76 60.49 61.45 62.11 62.30 63.77 63.81 63.51 64.14 64.89 66.92 67.55 68.14 68.96 69.14 69.09 70.11 70.56 70.54 69.88 68.58 69.00 69.13 69.31 69.14 67.44 68.37 69.97
39.81 41.06 46.99 51.07 45.54 44.13 40.95 39.30 35.55 32.75 32.05 36.08 35.88 36.34 45.13 53.94 56.98 59.86 62.38 62.49 61.94 62.24 63.45 63.73 64.84 65.63 67.26 68.41 68.50 69.17 68.70 68.67 69.99 70.88 70.64 70.59 68.87 69.86 69.99 70.27 69.66 69.02 68.19 70.03
39.94 41.59 49.48 49.95 49.71 44.35 40.14 38.90 39.32 34.81 31.45 33.54 36.47 40.75 45.57 50.22 56.95 58.49 59.19 60.99 61.57 61.92 62.30 63.68 65.43 66.14 67.60 68.57 68.53 69.46 68.62 68.85 70.09 70.82 71.05 70.67 70.19 69.60 70.36 70.42 69.87 69.41 68.09 69.98
44.34 41.21 45.53 49.47 49.94 49.96 45.23 41.95 38.31 35.19 32.39 31.52 34.89 36.53 39.98 46.66 49.61 54.81 57.35 59.51 60.27 61.31 63.11 63.93 65.77 66.06 67.80 69.05 69.13 70.16 70.29 69.23 70.10 71.39 71.94 71.28 70.75 70.99 70.99 70.55 69.73 69.12 69.16 70.32
45.27 42.47 45.36 45.66 43.59 42.80 44.69 42.92 39.00 36.44 33.62 32.07 30.65 39.31 44.72 46.10 49.62 51.40 55.61 58.45 59.18 61.21 62.33 64.10 65.81 66.36 67.49 68.90 69.36 69.31 70.76 70.33 70.30 70.95 71.80 72.55 71.56 71.22 71.19 70.87 70.36 69.97 69.84 70.38
45.72 40.76 38.57 43.93 45.29 46.49 44.64 41.88 39.49 38.20 38.08 32.89 33.88 37.11 47.67 49.57 53.16 55.86 56.18 58.80 62.42 63.97 61.33 63.78 65.86 66.30 66.52 67.96 68.65 69.22 69.25 70.56 71.16 71.70 71.45 71.68 73.23 72.01 71.35 70.89 70.61 70.84 70.36 70.73
48.60 38.82 34.05 38.83 42.00 44.41 43.22 43.10 42.56 38.97 37.19 36.58 36.68 40.19 49.58 55.89 58.39 57.73 57.29 62.28 63.63 66.82 65.07 62.46 64.37 64.30 64.82 65.89 67.19 68.95 69.61 69.79 71.05 71.86 71.76 71.55 72.08 72.87 72.06 71.27 70.55 71.00 70.79 70.64
50.98 38.40 38.61 35.66 39.89 41.30 41.35 42.85 42.31 40.27 37.01 36.50 38.84 41.45 47.76 54.89 57.57 59.16 60.10 60.33 59.61 62.88 66.24 67.88 67.27 65.58 65.80 66.02 67.02 67.65 69.41 71.17 70.43 71.76 72.00 71.62 71.54 72.94 73.27 72.45 71.33 70.96 70.94 69.77
43.76 40.08 39.01 41.13 42.93 42.85 41.95 43.12 43.11 40.54 41.13 39.92 42.55 41.82 50.82 54.79 56.64 57.37 56.79 58.04 58.31 59.16 60.47 62.15 66.53 68.77 69.11 68.20 67.75 68.41 69.04 71.02 71.86 71.80 72.09 72.34 72.63 72.54 73.48 72.25 71.65 70.96 70.45 69.62
39.59 37.68 37.58 38.43 41.52 41.30 41.10 43.22 42.48 42.95 43.76 42.76 42.81 46.01 54.19 56.99 57.60 55.71 56.59 56.99 56.48 56.62 57.76 58.14 59.90 65.01 68.82 70.43 71.07 68.34 69.60 70.67 71.89 71.99 72.07 73.21 73.15 72.85 73.12 71.75 71.29 70.68 69.79 68.80
38.40 36.08 33.97 32.71 37.81 40.34 37.62 40.43 42.48 43.31 47.15 45.53 44.72 50.04 56.19 56.19 57.30 56.04 55.59 56.61 56.84 57.67 58.49 57.51 58.29 56.89 59.63 66.16 70.72 70.26 69.00 71.49 72.05 72.47 72.60 73.34 73.62 72.99 73.15 71.73 70.66 69.71 68.81 67.84
36.70 35.04 33.61 33.13 35.00 30.32 40.01 43.37 45.24 47.26 54.63 54.16 53.01 54.68 57.03 55.39 56.37 57.03 57.82 56.97 57.79 58.92 59.17 59.30 60.09 60.06 59.87 61.95 69.28 69.98 70.13 70.69 72.10 72.50 72.85 73.41 73.76 73.19 72.64 71.46 70.16 69.58 68.61 67.43
39.51 37.01 34.38 33.65 31.81 37.22 42.62 44.26 46.75 45.90 50.55 53.85 54.02 55.35 57.78 56.69 56.81 57.18 60.17 59.70 58.44 57.73 58.48 60.38 63.92 66.37 68.24 68.48 69.12 68.98 69.91 70.53 71.86 72.69 72.79 73.17 73.36 73.13 71.95 71.14 70.45 69.50 68.05 66.95
37.40 37.38 38.07 33.13 32.49 32.92 41.29 49.53 52.97 52.49 46.43 54.68 55.98 55.10 55.76 55.94 51.82 55.11 59.10 61.54 60.60 60.25 62.51 67.18 68.46 69.01 67.78 67.98 68.57 68.84 70.16 69.65 71.31 72.86 73.09 73.30 73.25 72.87 71.86 71.54 70.57 69.71 68.27 66.68
39.80 38.53 35.28 33.74 34.74 39.22 47.28 50.27 52.37 43.04 44.75 54.34 56.06 56.16 55.07 53.91 55.46 58.36 60.73 62.30 63.69 64.65 67.62 68.10 67.39 66.48 66.91 67.53 67.22 69.02 69.13 68.90 70.95 72.57 72.44 71.97 72.84 72.68 72.09 71.21 70.46 68.41 67.26 66.00
39.17 38.61 37.96 36.86 35.66 37.06 50.36 49.48 45.99 47.99 50.49 53.20 53.05 54.49 55.34 55.51 57.58 58.31 59.47 58.06 58.24 60.07 67.17 67.34 65.43 64.75 65.46 66.43 65.96 66.95 69.27 70.40 70.85 70.50 70.19 70.93 70.86 70.17 69.38 69.61 68.23 66.69 65.95 64.59
39.58 41.34 39.53 40.84 41.40 47.46 48.33 46.93 48.87 51.24 50.18 50.06 49.40 51.03 52.87 54.18 55.22 56.10 55.79 56.10 56.81 56.77 62.41 65.65 64.90 64.35 65.08 65.01 65.60 64.56 66.77 69.86 70.13 69.25 68.03 69.90 69.54 69.79 69.65 67.82 64.88 64.40 64.13 63.29
43.01 43.93 41.78 42.32 42.72 46.51 49.13 48.78 48.99 48.14 47.57 48.73 49.71 50.60 50.98 50.57 51.27 51.36 52.56 51.42 51.49 52.81 54.67 58.97 63.30 63.16 63.42 64.84 65.19 65.36 65.44 67.60 69.31 68.66 68.14 68.21 68.14 66.94 66.89 65.83 64.54 64.13 63.12 62.30
45.10 43.64 41.08 40.84 44.33 45.66 48.68 48.67 49.10 50.09 50.19 49.84 49.83 49.72 49.86 49.73 48.83 49.56 50.75 50.51 50.88 50.81 50.94 52.88 55.88 60.27 62.77 63.92 64.60 65.21 65.70 65.48 67.80 68.45 67.98 67.82 67.19 65.47 64.84 64.61 63.73 64.45 64.78 62.85
45.76 43.83 41.26 42.08 44.80 44.75 45.91 49.60 50.69 49.75 49.16 49.77 49.23 49.05 49.44 49.37 48.74 47.77 48.26 48.39 49.22 49.65 49.82 50.22 50.03 52.21 54.80 60.13 63.84 65.16 64.93 65.05 66.21 67.64 67.50 66.80 66.05 64.99 63.86 63.09 60.12 54.68 56.72 54.18
MSLP
1004.32 1005.23 1005.62 1005.62 1005.97 1005.97 1006.11 1006.11 1005.60 1004.33 1003.71 1004.38 1004.83 1004.90 1004.75 1005.32 1005.84 1006.32 1007.23 1007.76 1007.88 1008.19 1007.78 1008.21 1008.43 1008.73 1009.37 1010.08 1010.77 1011.30 1012.00 1012.64 1013.25 1014.01 1014.61 1014.98 1015.06 1015.32 1015.62 1015.32 1015.32 1015.63 1016.05 1016.15
1004.93 1005.05 1004.66 1004.98 1005.10 1005.36 1005.67 1005.64 1004.93 1004.13 1003.42 1003.59 1004.05 1004.03 1003.79 1004.18 1004.36 1004.20 1005.35 1006.54 1006.60 1007.16 1007.55 1007.77 1008.01 1008.25 1008.70 1009.34 1010.08 1010.79 1011.41 1012.17 1012.71 1013.30 1013.82 1014.29 1014.69 1015.13 1015.16 1015.03 1015.09 1015.23 1015.62 1015.97
1004.96 1004.20 1004.15 1004.58 1004.80 1005.33 1005.23 1004.99 1004.31 1003.87 1003.42 1003.37 1003.90 1003.73 1003.58 1003.62 1003.67 1003.70 1004.13 1004.23 1005.60 1005.89 1006.39 1006.89 1007.36 1007.48 1008.07 1008.99 1009.59 1010.17 1010.82 1011.45 1012.15 1012.88 1013.59 1014.25 1014.60 1014.81 1015.00 1015.11 1014.75 1014.78 1015.12 1015.70
1004.75 1003.96 1003.85 1003.92 1004.07 1004.26 1004.54 1003.45 1003.53 1003.81 1004.38 1004.30 1004.30 1004.51 1003.84 1003.63 1003.46 1003.34 1003.48 1003.60 1004.40 1005.12 1005.73 1006.22 1006.79 1007.26 1007.46 1008.02 1008.85 1009.64 1010.43 1011.09 1011.75 1012.40 1013.12 1013.71 1013.96 1014.51 1014.55 1014.54 1014.58 1014.88 1015.15 1015.43
1004.25 1003.67 1003.39 1003.43 1003.25 1003.59 1003.38 1002.92 1003.30 1003.66 1004.60 1005.09 1005.04 1005.47 1003.82 1003.82 1003.54 1002.82 1002.64 1002.64 1003.32 1004.03 1004.71 1005.33 1005.84 1006.14 1006.69 1007.40 1008.18 1009.04 1010.06 1010.88 1011.46 1012.00 1012.42 1013.16 1013.55 1013.93 1014.12 1014.37 1014.70 1014.94 1015.19 1015.45
1003.98 1003.35 1003.04 1002.56 1002.21 1002.36 1002.35 1003.23 1004.30 1005.06 1005.95 1006.30 1005.61 1005.22 1003.99 1003.33 1001.66 1001.58 1001.99 1001.78 1002.56 1003.40 1003.90 1004.41 1005.07 1006.13 1006.68 1007.43 1007.87 1008.80 1009.81 1010.43 1011.01 1011.61 1012.16 1012.64 1013.05 1013.61 1014.09 1014.41 1014.85 1015.17 1015.35 1015.66
1004.45 1003.70 1002.88 1002.49 1002.46 1002.61 1003.31 1004.65 1005.92 1007.09 1007.38 1006.77 1005.40 1005.28 1003.05 1001.76 1001.34 1000.48 1000.26 1000.95 1001.82 1002.50 1003.13 1003.98 1004.69 1005.43 1006.17 1006.94 1007.69 1008.29 1009.27 1010.16 1010.67 1011.16 1011.68 1012.13 1012.59 1013.09 1013.57 1013.95 1014.37 1014.99 1015.39 1015.60
1005.58 1004.55 1003.44 1002.80 1002.80 1002.97 1003.61 1004.37 1006.32 1007.68 1008.49 1007.42 1005.94 1004.77 1002.52 1001.43 1000.30 999.54 1000.14 1000.67 1001.59 1002.17 1002.66 1003.19 1003.60 1004.39 1005.24 1006.24 1007.26 1008.14 1008.74 1009.50 1010.17 1010.67 1011.12 1011.60 1012.20 1012.60 1012.99 1013.45 1013.93 1014.48 1014.86 1015.06
1005.90 1005.22 1004.08 1003.48 1003.07 1003.43 1003.79 1004.90 1005.60 1007.38 1008.81 1008.11 1006.74 1004.85 1002.44 1001.47 1000.62 1000.26 1000.75 1001.15 1001.46 1001.71 1002.12 1002.41 1003.07 1003.75 1004.79 1005.40 1006.16 1007.07 1008.08 1008.82 1009.36 1009.83 1010.48 1011.20 1011.74 1012.25 1012.58 1012.96 1013.42 1013.92 1014.32 1014.77
1006.18 1006.08 1005.25 1004.40 1003.58 1003.71 1004.07 1004.98 1006.26 1007.90 1009.14 1008.95 1007.79 1006.17 1004.81 1003.03 1001.88 1001.12 1001.28 1000.88 1001.20 1001.38 1001.55 1001.97 1002.55 1003.18 1003.88 1004.77 1005.63 1006.57 1007.27 1007.86 1008.43 1009.05 1009.75 1010.45 1010.99 1011.59 1012.12 1012.59 1013.15 1013.58 1013.94 1014.43
1006.49 1007.27 1006.55 1005.60 1005.97 1005.64 1005.33 1005.71 1007.14 1008.62 1009.22 1009.43 1008.65 1006.98 1004.34 1003.81 1002.64 1001.72 1002.13 1001.67 1001.33 1001.32 1001.41 1001.17 1001.56 1002.40 1003.27 1004.23 1005.31 1005.98 1006.64 1007.39 1008.05 1008.64 1009.19 1009.87 1010.46 1010.94 1011.58 1012.05 1012.47 1012.97 1013.54 1014.08
1007.14 1008.32 1008.51 1007.37 1006.52 1006.29 1006.27 1006.72 1007.51 1008.78 1009.69 1009.61 1008.71 1006.57 1003.94 1003.88 1002.78 1002.59 1002.83 1002.51 1002.26 1002.17 1001.91 1001.60 1001.64 1001.53 1002.64 1003.61 1004.43 1005.19 1006.00 1006.85 1007.23 1007.69 1008.49 1009.08 1009.66 1010.42 1010.99 1011.41 1011.90 1012.44 1013.04 1013.53
1007.37 1009.06 1009.66 1008.45 1007.81 1007.36 1007.10 1007.09 1007.48 1008.27 1009.01 1009.32 1008.73 1006.73 1004.72 1005.00 1004.42 1004.07 1003.82 1004.04 1003.75 1003.24 1002.60 1002.13 1002.35 1003.45 1004.25 1005.32 1006.01 1006.22 1005.89 1006.32 1006.65 1007.38 1008.09 1008.67 1008.99 1009.49 1010.05 1010.66 1011.17 1011.82 1012.41 1013.08
1007.66 1009.70 1010.34 1010.30 1009.53 1008.80 1008.11 1007.50 1007.39 1007.91 1008.81 1009.19 1008.00 1007.00 1005.94 1006.63 1006.31 1005.92 1005.25 1005.49 1005.19 1004.26 1003.96 1003.87 1003.49 1003.50 1003.48 1004.20 1005.38 1005.68 1006.12 1006.97 1006.99 1006.63 1007.25 1007.81 1008.16 1008.53 1008.96 1009.67 1010.37 1011.02 1011.69 1012.45
1009.02 1010.01 1010.34 1009.91 1009.29 1008.69 1008.07 1007.52 1007.13 1007.44 1007.66 1007.99 1007.24 1007.12 1006.53 1007.37 1007.55 1007.16 1006.87 1006.59 1005.98 1005.26 1005.02 1004.89 1004.62 1004.37 1004.13 1003.55 1003.81 1004.16 1004.76 1005.30 1005.97 1006.42 1006.76 1006.54 1006.95 1007.71 1008.52 1009.11 1009.46 1010.20 1010.95 1011.68
1010.05 1010.53 1010.61 1010.04 1008.98 1008.45 1007.74 1006.89 1006.62 1006.58 1006.60 1006.75 1006.55 1006.77 1006.54 1007.31 1007.80 1007.71 1007.46 1007.04 1006.21 1005.65 1005.51 1005.47 1005.43 1004.85 1004.25 1003.53 1003.15 1003.97 1004.18 1004.62 1005.10 1005.37 1005.46 1005.64 1005.93 1006.70 1007.57 1008.41 1009.10 1009.68 1010.39 1011.13
1010.62 1010.98 1011.54 1010.87 1009.64 1008.49 1007.56 1006.23 1005.90 1005.97 1006.02 1006.21 1006.54 1006.29 1006.71 1007.28 1007.75 1007.80 1007.60 1007.47 1007.27 1006.61 1005.76 1005.29 1005.07 1005.56 1005.54 1005.68 1005.44 1005.13 1004.39 1003.70 1003.72 1004.19 1004.60 1004.56 1003.12 1004.09 1006.34 1007.34 1008.29 1009.15 1009.89 1010.62
1010.48 1011.46 1011.65 1011.64 1010.32 1009.20 1006.89 1005.66 1005.41 1005.72 1005.98 1005.83 1006.11 1006.44 1006.95 1007.12 1007.32 1007.38 1007.37 1007.24 1007.01 1007.06 1006.69 1006.19 1005.83 1005.15 1004.60 1004.40 1004.11 1003.83 1003.78 1003.65 1003.25 1003.00 1002.83 1003.68 1004.01 1004.64 1005.56 1006.40 1007.20 1008.11 1008.84 1009.56
1009.87 1010.90 1011.94 1011.95 1011.07 1009.21 1006.66 1005.86 1005.60 1005.57 1006.31 1006.16 1006.26 1006.58 1006.65 1006.84 1006.87 1006.65 1006.49 1006.43 1006.24 1005.84 1005.44 1004.88 1004.46 1004.41 1004.53 1004.29 1003.99 1003.69 1003.24 1002.98 1002.21 1002.22 1002.39 1002.45 1003.11 1003.64 1004.34 1005.06 1005.83 1006.83 1007.88 1008.87
1010.25 1010.69 1011.22 1012.11 1011.24 1009.40 1007.11 1005.86 1005.20 1005.37 1006.36 1006.10 1006.24 1006.50 1006.64 1007.02 1007.34 1006.84 1006.03 1005.91 1005.81 1005.67 1005.40 1005.16 1005.05 1004.90 1004.77 1004.42 1003.96 1003.42 1002.61 1001.96 1001.48 1001.16 1001.32 1001.94 1002.39 1002.65 1003.27 1003.78 1004.69 1005.42 1006.51 1007.29
1010.83 1011.30 1011.43 1011.26 1010.43 1008.44 1006.87 1005.91 1005.28 1006.07 1006.65 1006.09 1006.19 1006.21 1006.44 1006.75 1006.13 1005.61 1005.59 1005.54 1005.29 1005.38 1005.26 1005.41 1005.37 1005.09 1004.94 1004.51 1003.97 1003.57 1002.91 1002.15 1001.52 1001.56 1001.43 1001.96 1002.29 1002.60 1003.75 1004.41 1004.97 1005.78 1006.11 1007.13
1011.19 1011.33 1011.34 1011.11 1010.02 1008.40 1006.64 1005.91 1006.24 1006.79 1006.32 1006.11 1005.99 1005.99 1006.03 1005.65 1005.52 1005.48 1005.45 1005.35 1005.10 1005.18 1005.17 1004.96 1005.06 1005.11 1004.83 1004.63 1004.28 1003.61 1002.83 1002.17 1001.77 1001.42 1001.33 1001.69 1002.12 1003.44 1004.44 1003.70 1004.69 1006.22 1006.24 1007.01
1011.02 1010.53 1010.64 1010.49 1009.23 1008.05 1007.20 1006.80 1006.65 1006.56 1006.52 1006.38 1006.30 1006.00 1005.72 1005.74 1005.78 1005.74 1005.73 1005.60 1005.39 1005.07 1004.97 1004.89 1004.98 1004.78 1004.35 1004.28 1004.09 1003.67 1003.28 1002.83 1002.53 1002.49 1002.82 1002.22 1002.74 1003.15 1003.12 1003.82 1007.07 1006.64 1007.05 1007.36
1010.40 1010.09 1010.22 1009.94 1008.83 1008.10 1007.53 1007.17 1006.72 1006.52 1006.49 1006.43 1006.31 1006.10 1005.82 1005.75 1005.78 1005.93 1006.03 1006.04 1005.94 1005.60 1005.27 1004.91 1004.80 1004.57 1004.35 1004.00 1003.93 1003.74 1003.40 1003.09 1002.94 1003.21 1003.27 1002.81 1002.76 1003.25 1002.85 1003.51 1005.22 1006.17 1006.17 1006.72
1010.30 1010.20 1010.29 1009.94 1008.82 1008.26 1007.47 1007.08 1006.81 1006.55 1006.35 1006.27 1006.09 1006.06 1005.94 1005.87 1005.71 1005.63 1005.72 1005.82 1005.74 1005.58 1005.40 1005.36 1005.04 1004.70 1004.41 1003.93 1003.80 1003.58 1003.19 1003.13 1003.38 1003.12 1003.13 1003.34 1003.46 1003.72 1003.80 1004.21 1003.87 1004.99 1005.89 1005.97
1009.65 1009.42 1009.78 1009.04 1008.15 1008.02 1007.62 1007.06 1006.78 1006.80 1006.56 1006.23 1006.12 1005.96 1005.65 1005.61 1005.73 1005.78 1005.98 1006.13 1006.05 1005.86 1005.57 1005.30 1005.11 1004.96 1004.56 1004.36 1003.90 1003.21 1003.21 1003.18 1003.15 1003.18 1003.08 1003.07 1003.38 1003.71 1004.13 1004.09 1004.02 1004.33 1005.45 1005.96
Wind_Speed
3 5 4 9 7 7 5 4 7 8 7 5 10 7 13 15 14 17 17 16 17 19 21 19 17 17 15 11 10 12 11 8 8 4 4 3 4 3 2 3 3 2 4 4
7 4 8 5 6 7 4 7 8 9 4 2 9 16 13 14 20 24 21 19 20 18 16 16 17 17 17 15 13 13 13 11 10 7 4 3 3 2 2 3 3 5 4 5
6 9 1 4 3 4 4 8 7 7 5 3 3 8 1 1 7 18 21 24 21 22 19 14 15 18 16 14 16 15 15 14 12 7 5 3 3 3 2 3 4 3 4 6
6 5 2 1 5 7 6 11 16 10 3 5 4 7 7 3 5 14 18 21 20 20 17 14 14 16 19 17 15 14 14 14 12 9 8 6 5 4 4 4 3 2 5 6
9 3 3 3 7 7 12 2 10 11 4 5 4 2 9 1 9 12 17 19 20 20 19 17 17 19 18 16 16 14 13 13 12 12 11 8 5 4 2 3 5 5 4 5
6 2 4 7 5 8 2 3 8 6 5 2 6 5 8 6 13 11 8 15 17 18 18 16 15 12 13 13 14 14 14 14 12 14 11 12 9 6 4 4 4 3 3 3
6 5 5 2 4 2 7 8 4 4 4 6 1 3 13 5 7 15 20 15 12 17 16 12 15 14 14 15 15 15 15 14 13 14 13 12 10 9 9 7 5 5 3 3
3 8 6 7 2 4 4 9 8 4 3 6 0 3 8 6 9 11 2 9 10 9 12 15 18 17 17 17 16 14 16 14 13 14 13 11 9 8 6 7 5 5 6 6
3 5 6 1 3 1 2 1 3 9 3 2 4 8 10 12 10 5 8 7 8 10 10 16 16 16 17 18 19 18 16 14 15 16 12 11 9 9 9 9 6 6 5 5
1 4 1 7 7 8 7 3 3 5 2 3 5 2 6 13 19 7 2 7 6 8 11 13 16 17 16 16 15 15 16 18 17 16 13 12 12 11 8 8 8 7 6 6
3 4 9 2 3 3 7 7 6 6 4 5 0 5 9 9 15 12 3 7 6 9 11 15 16 16 15 14 14 15 15 16 14 14 13 12 12 11 9 9 9 9 7 8
2 6 2 8 1 5 3 2 4 6 4 2 5 8 8 13 8 10 9 9 9 7 3 6 12 18 16 16 15 18 14 14 16 16 15 15 14 12 11 11 10 9 10 9
0 3 4 12 8 5 6 5 3 4 4 1 5 7 5 13 15 10 10 12 10 10 11 5 9 6 5 3 2 6 14 16 15 14 14 13 14 14 14 13 11 11 10 9
8 4 7 7 8 3 5 5 3 4 4 3 5 6 8 11 9 10 10 10 8 10 11 10 10 7 8 8 8 8 9 11 11 14 14 14 15 15 15 13 13 12 12 12
5 2 5 6 7 3 4 5 5 1 4 4 7 7 5 2 5 5 5 4 6 9 10 8 7 6 4 8 8 10 12 13 13 12 14 17 15 13 12 12 14 13 13 12
3 3 1 5 4 1 4 7 5 3 4 6 5 4 3 1 1 0 2 1 4 4 2 3 3 3 4 5 7 5 10 11 12 15 18 15 15 14 14 12 12 12 12 12
2 4 3 6 5 6 6 6 4 2 1 2 4 6 4 2 5 5 4 3 1 5 7 7 6 3 1 3 7 5 6 11 17 17 16 16 13 15 16 13 13 13 14 13
7 6 2 4 4 1 10 5 4 3 2 4 4 1 3 3 3 4 5 5 5 6 7 6 5 7 8 4 5 5 5 11 16 18 19 16 14 16 15 15 16 15 14 16
6 7 2 3 3 6 7 4 3 4 1 1 5 5 5 4 4 3 4 3 6 7 8 7 6 5 5 6 7 9 9 11 16 18 18 18 18 18 18 19 18 16 14 13
8 6 6 3 4 6 6 8 3 4 1 3 2 5 7 4 2 6 3 4 5 6 5 5 7 6 7 9 9 11 13 8 15 17 18 15 16 18 19 19 19 16 14 15
4 4 5 2 4 7 6 10 4 3 7 5 5 6 6 6 7 5 4 4 4 4 5 4 4 3 6 8 8 8 9 6 5 7 6 8 13 14 13 12 11 13 14 12
3 1 3 1 3 5 5 5 4 6 3 2 4 4 7 7 6 5 7 6 5 5 6 4 2 4 4 5 6 7 11 11 7 4 7 7 8 5 3 4 5 10 10 11
3 7 4 7 7 6 4 2 2 3 1 3 2 3 5 2 4 5 5 6 5 4 4 4 5 5 6 4 4 6 6 6 7 6 2 6 6 9 9 13 10 7 7 5
4 2 3 4 4 4 3 2 2 3 2 3 4 6 2 3 3 4 5 5 5 5 5 3 5 6 7 6 5 6 5 4 4 4 2 4 4 7 9 9 10 9 10 8
6 3 3 6 10 7 5 4 3 4 5 5 5 3 5 6 7 5 5 5 5 5 4 4 6 6 8 7 7 7 6 3 4 4 3 4 6 6 8 9 9 8 10 10
6 7 5 10 9 5 8 6 6 8 8 9 9 8 8 6 8 5 3 3 4 6 6 7 7 7 9 7 9 8 6 4 3 4 3 3 2 4 5 5 4 10 4 6
Wind_Direction
20 82 214 220 197 219 199 210 229 268 171 137 193 222 228 202 206 187 194 204 199 210 216 209 210 205 198 190 173 183 171 163 153 146 138 159 184 162 196 195 211 219 192 192
17 232 231 220 221 234 209 225 235 276 131 253 186 227 232 191 208 203 188 197 207 216 215 212 210 211 199 189 181 181 182 169 175 175 165 153 144 153 191 168 196 212 188 184
167 247 58 182 211 176 238 207 224 212 333 304 120 311 208 2 192 209 197 199 200 208 212 205 196 198 196 184 183 182 182 174 181 167 126 87 88 101 138 191 222 169 172 189
227 277 227 316 264 168 246 209 243 242 109 250 90 268 290 176 222 207 196 202 201 204 213 205 192 190 187 189 185 180 180 177 179 160 168 170 176 161 200 184 185 190 185 201
255 266 297 244 231 154 231 164 208 232 206 62 293 95 272 271 223 222 208 204 201 201 202 200 197 190 191 175 178 179 176 175 177 176 180 185 174 174 164 155 166 181 186 200
248 239 194 224 251 198 281 119 32 44 85 77 233 151 281 204 224 227 201 213 197 196 203 199 195 186 182 183 172 169 173 182 177 181 182 186 187 176 154 164 169 178 188 182
342 300 285 230 352 354 75 57 344 350 13 216 30 64 239 292 243 218 212 201 177 193 195 183 182 177 176 179 182 172 175 181 182 184 185 190 192 180 183 178 172 161 167 193
104 346 5 326 280 256 224 153 151 210 210 252 52 248 262 279 280 230 328 151 164 179 192 187 185 179 179 177 176 183 179 180 183 186 194 192 183 192 188 181 171 183 187 193
111 291 312 187 279 37 348 278 170 101 7 45 287 310 321 347 332 110 118 130 184 184 183 190 186 181 182 179 178 182 181 187 185 192 188 191 185 188 188 184 177 185 182 182
269 357 262 294 23 6 83 197 25 13 132 277 316 281 256 321 315 314 143 190 200 198 188 180 185 186 182 187 175 181 181 185 191 190 191 194 191 194 189 170 179 180 183 175
106 81 300 22 79 317 350 10 45 111 106 150 318 279 227 274 281 280 239 287 248 188 186 185 183 188 183 176 179 183 181 187 190 193 194 192 197 193 182 186 186 189 174 178
316 132 281 250 352 326 5 70 115 106 288 79 137 275 293 327 352 61 36 30 32 20 355 208 192 177 174 177 180 189 181 190 195 195 192 198 196 193 190 191 192 179 188 180
123 46 6 344 2 360 35 342 82 102 78 236 110 267 348 2 25 17 55 26 10 42 44 78 121 124 80 16 290 229 190 198 197 192 197 199 199 194 198 194 190 182 181 177
79 102 147 178 224 229 312 320 66 97 83 221 225 279 312 5 9 17 42 360 349 34 65 64 60 83 123 145 158 199 204 235 215 194 193 199 202 203 199 192 188 181 178 170
78 169 194 228 231 219 255 275 334 6 202 172 252 210 275 359 313 350 8 352 31 47 46 49 64 73 82 130 161 193 198 197 203 210 202 205 200 198 202 194 188 180 177 176
21 267 264 272 261 2 254 284 294 248 231 243 207 243 233 137 232 226 142 111 60 36 54 80 104 44 67 71 28 264 212 206 200 204 216 207 193 187 195 188 190 180 176 170
160 148 89 274 345 335 334 249 191 252 280 226 177 234 173 205 205 200 187 193 229 306 320 340 347 124 146 220 204 240 278 214 196 206 214 214 189 181 191 179 176 178 177 169
152 119 122 254 5 288 241 258 229 151 99 63 45 49 167 269 272 282 261 253 238 201 205 240 288 326 320 301 303 277 264 251 219 214 200 202 195 194 187 180 183 177 176 180
180 129 151 157 198 280 313 352 39 201 196 323 173 215 214 204 319 320 237 241 276 304 325 332 343 356 338 330 322 313 295 257 220 214 211 198 195 195 188 188 182 179 174 179
72 72 123 135 183 232 239 291 320 140 329 272 173 216 193 137 131 260 223 217 259 263 280 348 346 342 336 324 328 327 312 250 223 212 212 208 205 200 196 190 183 180 183 182
359 27 176 193 232 285 262 290 316 190 235 188 195 213 172 194 203 211 209 234 218 215 204 212 236 281 303 313 324 326 320 307 272 235 211 209 208 204 198 190 174 184 184 174
181 133 234 128 194 274 329 4 93 221 302 309 320 285 237 228 218 199 207 198 174 223 224 225 262 263 257 292 324 343 347 330 326 186 156 188 193 172 151 137 235 200 182 179
261 183 203 172 218 233 294 96 329 193 126 347 281 302 348 246 236 230 245 242 240 249 267 264 259 296 311 315 334 342 321 327 330 349 323 221 173 189 152 145 211 164 148 137
267 164 205 43 286 206 360 244 330 26 354 302 319 298 244 189 232 250 260 271 275 277 272 276 275 292 298 304 301 285 309 329 325 294 230 237 196 153 151 162 192 177 164 178
206 151 174 262 283 284 247 213 249 290 282 285 286 244 277 280 269 236 219 244 274 281 270 290 309 301 282 294 288 288 294 325 288 267 253 201 221 198 168 182 171 191 203 193
188 225 200 251 225 194 241 235 250 241 246 250 254 273 254 230 235 264 280 306 320 331 336 339 320 306 293 287 281 269 248 237 254 264 254 252 202 160 172 172 118 33 305 116